Tracking 19219 objects as of 21-Jul-2018
HD Live streaming from Space Station
objects crossing your sky now

FENGYUN 1C DEB

Track FENGYUN 1C DEB now!
10-day predictions


NORAD ID: 31886
Int'l Code: 1999-025CKM
Perigee: 801.8 km
Apogee: 886.3 km
Inclination: 99.2 °
Period: 101.7 minutes
Semi major axis: 7215 km
RCS: 0.0012 m2 (small)
Launch date: May 10, 1999
Source: People's Republic of China (PRC)
Launch site: Taiyaun Space Center, China (TSC)

Note: This is SATELLITE DEBRIS
aabbcc
Your satellite tracking list
Your tracking list is empty




NASA's NSSDC Master Catalog

Two Line Element Set (TLE):
1 31886U 99025CKM 18201.57150301  .00000583  00000-0  31060-3 0  9994
2 31886  99.1840 326.6957 0058594  38.9088 321.6280 14.16589189569693
Source of the keplerian elements: AFSPC